Glendale Luke AFB, AZ

8:45 AM MST on November 12, 2019 (GMT -0700)
Luke Air Force Base

Weather History for KLUF - September, 2019

Change the Weather History Date:

Monday, September 23, 2019

  Actual Average Record
Temperature  
Mean Temperature 76 °F -  
Max Temperature 89 °F 99 °F 109 °F (1947)
Min Temperature 64 °F 63 °F 48 °F (1960)
Cooling Degree Days 12    
Growing Degree Days 26 (Base 50)    
Moisture  
Dew Point 66 °F    
Average Humidity 72    
Maximum Humidity 94    
Minimum Humidity 28    
Precipitation  
Precipitation 0.82 in - - ()
Sea Level Pressure  
Sea Level Pressure 29.88 in    
Wind  
Wind Speed 10 mph (NE)    
Max Wind Speed 31 mph    
Max Gust Speed 40 mph    
Visibility 9 miles    
Events Rain , Thunderstorm    
Averages and records for this station are not official NWS values.
T = Trace of Precipitation, MM = Missing Value Source: NWS Daily Summary

Daily Weather History Graph

Daily Weather History Graph

Search for Another Location

Airport or City:

Astronomy

Sep. 23, 2019 Rise Set
Actual Time 6:18 AM MST 6:25 PM MST
Civil Twilight 5:53 AM MST 6:49 PM MST
Nautical Twilight 5:24 AM MST 7:18 PM MST
Astronomical Twilight 4:55 AM MST 7:47 PM MST
Moon 12:23 AM MST (9/23) 3:03 PM MST (9/23)
Length of Visible Light 12h 56m
Length of Day
12h 06m
Waning Crescent, 32% of the Moon is Illuminated
Sep 23
Waning Crescent
Sep 28
New
Oct 5
First Quarter
Oct 13
Full
Oct 21
Last Quarter

Hourly Weather History & Observations

Time (MST) Temp. Heat Index Dew Point Humidity Pressure Visibility Wind Dir Wind Speed Gust Speed Precip Events Conditions
12:18 AM 82.4 °F - 46.4 °F 28% 29.83 in 10.0 mi WSW 8.1 mph - N/A   Scattered Clouds
12:58 AM 81.7 °F - 48.0 °F 31% 29.84 in 10.0 mi WSW 3.5 mph - N/A   Scattered Clouds
1:08 AM 82.4 °F - 50.0 °F 32% 29.84 in 10.0 mi SW 5.8 mph - N/A   Mostly Cloudy
1:58 AM 83.5 °F 85.1 °F 64.9 °F 53% 29.84 in 10.0 mi SW 12.7 mph - N/A   Mostly Cloudy
2:08 AM 84.2 °F 86.6 °F 66.2 °F 55% 29.84 in 10.0 mi SW 11.5 mph - N/A   Mostly Cloudy
2:18 AM 84.2 °F 86.6 °F 66.2 °F 55% 29.84 in 10.0 mi SW 11.5 mph - N/A   Mostly Cloudy
2:38 AM 82.4 °F 84.6 °F 66.2 °F 58% 29.84 in 10.0 mi SSW 10.4 mph - N/A   Mostly Cloudy
2:58 AM 82.9 °F 85.4 °F 66.6 °F 58% 29.84 in 10.0 mi SSW 9.2 mph - N/A   Scattered Clouds
3:58 AM 81.9 °F 84.2 °F 66.6 °F 60% 29.85 in 10.0 mi SSW 6.9 mph - N/A   Scattered Clouds
4:08 AM 82.4 °F 84.6 °F 66.2 °F 58% 29.85 in 10.0 mi Calm Calm - N/A   Mostly Cloudy
4:58 AM 81.3 °F 83.2 °F 65.5 °F 58% 29.86 in 10.0 mi Calm Calm - N/A   Mostly Cloudy
5:08 AM 82.4 °F 84.6 °F 66.2 °F 58% 29.86 in 10.0 mi SE 3.5 mph - N/A   Overcast
5:48 AM 80.6 °F 82.7 °F 66.2 °F 61% 29.86 in 10.0 mi SE 5.8 mph - N/A   Overcast
5:58 AM 81.0 °F 83.3 °F 66.7 °F 62% 29.86 in 10.0 mi ESE 6.9 mph - N/A   Overcast
6:58 AM 77.4 °F - 68.7 °F 75% 29.88 in 10.0 mi ESE 8.1 mph - N/A   Overcast
7:00 AM 77.0 °F - 69.8 °F 78% 29.88 in 10.0 mi ESE 8.1 mph - N/A   Light Drizzle
7:09 AM 77.0 °F - 69.8 °F 78% 29.88 in 10.0 mi ESE 8.1 mph - N/A   Overcast
7:19 AM 77.0 °F - 71.6 °F 83% 29.89 in 10.0 mi ESE 5.8 mph - N/A   Overcast
7:40 AM 78.8 °F - 71.6 °F 78% 29.89 in 10.0 mi ESE 5.8 mph - N/A Rain Light Rain
7:53 AM 77.0 °F - 73.4 °F 89% 29.90 in 10.0 mi East 6.9 mph - N/A   Mostly Cloudy
7:58 AM 77.5 °F - 73.6 °F 88% 29.90 in 10.0 mi ESE 6.9 mph - 0.00 in   Mostly Cloudy
8:08 AM 77.0 °F - 73.4 °F 89% 29.90 in 10.0 mi East 5.8 mph - N/A   Mostly Cloudy
8:48 AM 78.8 °F - 75.2 °F 89% 29.91 in 10.0 mi SSE 6.9 mph - N/A   Mostly Cloudy
8:58 AM 79.2 °F - 72.7 °F 80% 29.91 in 10.0 mi SSE 5.8 mph - N/A   Mostly Cloudy
9:28 AM 84.2 °F 89.6 °F 71.6 °F 66% 29.91 in 10.0 mi ESE 5.8 mph - N/A   Scattered Clouds
9:38 AM 84.2 °F 89.6 °F 71.6 °F 66% 29.91 in 10.0 mi ESE 9.2 mph - N/A   Mostly Cloudy
9:48 AM 84.2 °F 89.6 °F 71.6 °F 66% 29.91 in 10.0 mi SE 6.9 mph - N/A   Mostly Cloudy
9:58 AM 85.6 °F 91.5 °F 72.0 °F 63% 29.89 in 10.0 mi SE 9.2 mph - N/A   Mostly Cloudy
10:28 AM 86.0 °F 91.8 °F 71.6 °F 62% 29.88 in 10.0 mi SSE 15.0 mph 20.7 mph N/A   Mostly Cloudy
10:32 AM 84.2 °F 89.6 °F 71.6 °F 66% 29.88 in 10.0 mi SSE 10.4 mph 20.7 mph N/A   Light Drizzle
10:41 AM 84.2 °F 89.6 °F 71.6 °F 66% 29.88 in 10.0 mi SSE 6.9 mph - N/A   Mostly Cloudy
10:58 AM 84.9 °F 90.1 °F 71.2 °F 63% 29.87 in 10.0 mi SE 9.2 mph - 0.00 in   Mostly Cloudy
11:08 AM 86.0 °F 91.8 °F 71.6 °F 62% 29.86 in 10.0 mi ESE 11.5 mph - N/A   Mostly Cloudy
11:36 AM 87.8 °F 92.6 °F 69.8 °F 55% 29.86 in 10.0 mi SSE 11.5 mph - N/A   Mostly Cloudy
11:56 AM 89.6 °F 94.7 °F 69.8 °F 52% 29.84 in 10.0 mi SE 9.2 mph - N/A   Scattered Clouds
11:58 AM 89.4 °F 94.0 °F 68.9 °F 51% 29.84 in 10.0 mi SSE 11.5 mph - N/A   Scattered Clouds
12:58 PM 82.6 °F 84.3 °F 64.8 °F 55% 29.85 in 9.0 mi NNE 24.2 mph - N/A Thunderstorm Mostly Cloudy
1:25 PM 80.6 °F 82.3 °F 64.4 °F 58% 29.90 in 5.0 mi North 31.1 mph - N/A Rain Light Rain
1:35 PM 77.0 °F - 66.2 °F 69% 29.90 in 5.0 mi North 27.6 mph 40.3 mph N/A Rain Light Rain
1:58 PM 73.8 °F - 67.5 °F 81% 29.89 in 10.0 mi North 23.0 mph - 0.00 in   Mostly Cloudy
2:10 PM 75.2 °F - 66.2 °F 73% 29.89 in 10.0 mi North 21.9 mph - N/A   Scattered Clouds
2:32 PM 75.2 °F - 66.2 °F 73% 29.87 in 10.0 mi North 18.4 mph - N/A Rain Light Rain
2:47 PM 77.0 °F - 64.4 °F 65% 29.87 in 10.0 mi North 18.4 mph 26.5 mph N/A   Scattered Clouds
2:58 PM 76.3 °F - 64.0 °F 66% 29.88 in 10.0 mi North 19.6 mph - 0.00 in   Scattered Clouds
3:38 PM 80.6 °F 81.8 °F 62.6 °F 54% 29.87 in 10.0 mi NNE 20.7 mph - N/A   Mostly Cloudy
3:58 PM 81.1 °F 81.9 °F 60.6 °F 50% 29.85 in 10.0 mi NNE 19.6 mph 26.5 mph N/A   Mostly Cloudy
4:08 PM 80.6 °F 81.5 °F 60.8 °F 51% 29.86 in 10.0 mi NNE 17.3 mph - N/A Thunderstorm Thunderstorm
4:13 PM 80.6 °F 81.5 °F 60.8 °F 51% 29.86 in 10.0 mi NNE 17.3 mph - N/A Thunderstorm Thunderstorm
4:18 PM 80.6 °F 81.5 °F 60.8 °F 51% 29.87 in 10.0 mi NNE 17.3 mph - N/A Thunderstorm Thunderstorm
4:32 PM 80.6 °F 81.1 °F 59.0 °F 48% 29.86 in 10.0 mi NNE 23.0 mph 26.5 mph N/A Thunderstorm Light Drizzle
4:42 PM 78.8 °F - 60.8 °F 54% 29.85 in 10.0 mi NNE 20.7 mph - N/A Rain , Thunderstorm Light Rain
4:52 PM 78.8 °F - 60.8 °F 54% 29.84 in 10.0 mi NNE 16.1 mph - N/A Thunderstorm Partly Cloudy
4:54 PM 78.8 °F - 60.8 °F 54% 29.84 in 10.0 mi NNE 18.4 mph - N/A Thunderstorm Thunderstorm
4:58 PM 79.5 °F - 60.3 °F 52% 29.84 in 10.0 mi NNE 15.0 mph - 0.00 in Thunderstorm Thunderstorm
5:12 PM 80.6 °F 81.5 °F 60.8 °F 51% 29.85 in 10.0 mi NE 16.1 mph - N/A Thunderstorm Thunderstorm
5:35 PM 78.8 °F - 60.8 °F 54% 29.88 in 9.0 mi SSW 4.6 mph - N/A Rain , Thunderstorm Light Thunderstorms and Rain
5:44 PM 77.0 °F - 66.2 °F 69% 29.86 in 3.0 mi NNW 20.7 mph 34.5 mph N/A Rain , Thunderstorm Heavy Thunderstorms and Rain
5:47 PM 73.4 °F - 66.2 °F 78% 29.84 in 1.2 mi North 21.9 mph 34.5 mph N/A Rain , Thunderstorm Heavy Thunderstorms and Rain
5:48 PM 73.4 °F - 66.2 °F 78% 29.84 in 1.2 mi NNE 20.7 mph 34.5 mph N/A Rain , Thunderstorm Heavy Thunderstorms and Rain
5:50 PM 73.4 °F - 66.2 °F 78% 29.85 in 0.5 mi NNE 15.0 mph 34.5 mph N/A Rain , Thunderstorm Heavy Thunderstorms and Rain
5:56 PM 70.0 °F - 65.5 °F 86% 29.85 in 5.0 mi NNE 18.4 mph 29.9 mph 0.33 in Rain , Thunderstorm Light Thunderstorms and Rain
5:58 PM 69.6 °F - 65.5 °F 87% 29.85 in 4.0 mi NNE 16.1 mph 29.9 mph 0.33 in Rain , Thunderstorm Light Thunderstorms and Rain
6:01 PM 69.8 °F - 66.2 °F 88% 29.86 in 7.0 mi North 11.5 mph 29.9 mph N/A Rain , Thunderstorm Light Thunderstorms and Rain
6:05 PM 69.8 °F - 66.2 °F 88% 29.85 in 10.0 mi NNW 10.4 mph - N/A Rain , Thunderstorm Light Thunderstorms and Rain
6:20 PM 69.8 °F - 66.2 °F 88% 29.87 in 10.0 mi North 8.1 mph - N/A Rain , Thunderstorm Heavy Rain
6:30 PM 69.8 °F - 66.2 °F 88% 29.88 in 10.0 mi North 8.1 mph - N/A Rain , Thunderstorm Light Thunderstorms and Rain
6:34 PM 69.8 °F - 68.0 °F 94% 29.88 in 10.0 mi North 8.1 mph - N/A Thunderstorm Thunderstorm
6:36 PM 69.8 °F - 68.0 °F 94% 29.88 in 10.0 mi NE 9.2 mph - N/A Rain , Thunderstorm Light Thunderstorms and Rain
6:49 PM 71.6 °F - 68.0 °F 88% 29.84 in 10.0 mi ENE 12.7 mph - N/A Thunderstorm Thunderstorm
6:55 PM 71.6 °F - 66.2 °F 83% 29.85 in 10.0 mi ENE 10.4 mph - N/A Thunderstorm Overcast
6:58 PM 71.1 °F - 66.2 °F 85% 29.85 in 10.0 mi East 10.4 mph - 0.06 in Thunderstorm Overcast
7:28 PM 73.4 °F - 66.2 °F 78% 29.89 in 10.0 mi Calm Calm - N/A Thunderstorm Thunderstorm
7:38 PM 71.6 °F - 66.2 °F 83% 29.88 in 10.0 mi NNE 5.8 mph - N/A Rain Light Rain
7:48 PM 71.6 °F - 68.0 °F 88% 29.88 in 10.0 mi NNE 8.1 mph - N/A   Light Drizzle
7:58 PM 71.2 °F - 66.7 °F 86% 29.88 in 10.0 mi NE 5.8 mph - 0.00 in Rain Light Rain
8:04 PM 71.6 °F - 68.0 °F 88% 29.88 in 10.0 mi Calm Calm - N/A   Mostly Cloudy
8:58 PM 70.9 °F - 65.8 °F 84% 29.88 in 10.0 mi North 5.8 mph - 0.00 in   Mostly Cloudy
9:08 PM 71.6 °F - 66.2 °F 83% 29.90 in 10.0 mi North 9.2 mph - N/A   Scattered Clouds
9:18 PM 71.6 °F - 66.2 °F 83% 29.89 in 10.0 mi NNE 6.9 mph - N/A   Mostly Cloudy
9:28 PM 71.6 °F - 66.2 °F 83% 29.90 in 10.0 mi North 6.9 mph - N/A   Mostly Cloudy
9:38 PM 71.6 °F - 64.4 °F 78% 29.90 in 10.0 mi NNE 8.1 mph - N/A Rain , Thunderstorm Light Rain
9:48 PM 71.6 °F - 66.2 °F 83% 29.90 in 10.0 mi NNE 8.1 mph - N/A Rain Light Rain
9:58 PM 70.9 °F - 66.0 °F 85% 29.88 in 10.0 mi ENE 9.2 mph - 0.01 in Rain Light Rain
10:08 PM 71.6 °F - 66.2 °F 83% 29.86 in 10.0 mi ESE 9.2 mph - N/A Rain Light Rain
10:11 PM 71.6 °F - 66.2 °F 83% 29.87 in 10.0 mi ESE 6.9 mph - N/A Thunderstorm Overcast
10:31 PM 71.6 °F - 66.2 °F 83% 29.89 in 10.0 mi WNW 11.5 mph - N/A   Overcast
10:47 PM 69.8 °F - 66.2 °F 88% 29.89 in 10.0 mi NW 9.2 mph - N/A Thunderstorm Thunderstorm
10:58 PM 70.3 °F - 66.6 °F 88% 29.88 in 10.0 mi North 8.1 mph - 0.01 in Thunderstorm Thunderstorm
11:02 PM 69.8 °F - 66.2 °F 88% 29.87 in 10.0 mi North 8.1 mph - N/A Thunderstorm Overcast
11:11 PM 71.6 °F - 66.2 °F 83% 29.88 in 10.0 mi NNW 9.2 mph - N/A Thunderstorm Light Drizzle
11:16 PM 71.6 °F - 66.2 °F 83% 29.91 in 10.0 mi NW 12.7 mph - N/A Thunderstorm Unknown
11:17 PM 71.6 °F - 66.2 °F 83% 29.91 in 10.0 mi NW 12.7 mph - N/A Thunderstorm Thunderstorm
11:26 PM 71.6 °F - 64.4 °F 78% 29.94 in 10.0 mi West 17.3 mph 23.0 mph N/A Thunderstorm Unknown
11:29 PM 71.6 °F - 64.4 °F 78% 29.95 in 9.0 mi West 19.6 mph 26.5 mph N/A Rain , Thunderstorm Light Thunderstorms and Rain
11:35 PM 69.8 °F - 62.6 °F 78% 29.96 in 4.0 mi West 21.9 mph 28.8 mph N/A Rain , Thunderstorm Heavy Thunderstorms and Rain
11:45 PM 64.4 °F - 60.8 °F 88% 29.94 in 1.2 mi North 5.8 mph - N/A Rain , Thunderstorm Heavy Thunderstorms and Rain
11:46 PM 64.4 °F - 60.8 °F 88% 29.94 in 2.2 mi North 8.1 mph - N/A Rain , Thunderstorm Heavy Rain
11:56 PM 64.4 °F - 62.6 °F 94% 29.95 in 8.0 mi NNW 8.1 mph - N/A Rain , Thunderstorm Light Rain
11:58 PM 64.8 °F - 62.6 °F 93% 29.96 in 9.0 mi NNW 6.9 mph - 0.41 in Rain Light Rain